TimeMDT,TemperatureF,Dew PointF,Humidity,Sea Level PressureIn,VisibilityMPH,Wind Direction,Wind SpeedMPH,Gust SpeedMPH,PrecipitationIn,Events,Conditions,WindDirDegrees,DateUTC
12:53 AM,59.0,46.0,62,30.01,10.0,Calm,Calm,-,N/A,,Clear,0,2013-08-05 06:53:00
1:53 AM,57.9,45.0,62,29.99,10.0,Calm,Calm,-,N/A,,Clear,0,2013-08-05 07:53:00
2:53 AM,57.0,46.0,67,29.99,10.0,East,4.6,-,N/A,,Clear,90,2013-08-05 08:53:00
3:53 AM,55.0,45.0,69,30.00,10.0,Calm,Calm,-,N/A,,Clear,0,2013-08-05 09:53:00
4:53 AM,52.0,45.0,77,30.01,10.0,Calm,Calm,-,N/A,,Clear,0,2013-08-05 10:53:00
5:53 AM,52.0,45.0,77,30.01,10.0,Calm,Calm,-,N/A,,Clear,0,2013-08-05 11:53:00
6:53 AM,50.0,44.1,80,30.03,10.0,Calm,Calm,-,N/A,,Clear,0,2013-08-05 12:53:00
7:53 AM,57.0,46.0,67,30.02,10.0,Calm,Calm,-,N/A,,Clear,0,2013-08-05 13:53:00
8:53 AM,59.0,46.0,62,30.02,10.0,West,3.5,-,N/A,,Clear,280,2013-08-05 14:53:00
9:53 AM,62.1,46.9,58,30.03,10.0,SW,3.5,-,N/A,,Clear,230,2013-08-05 15:53:00
10:53 AM,63.0,46.0,54,30.02,10.0,WSW,3.5,-,N/A,,Clear,240,2013-08-05 16:53:00
11:53 AM,71.1,46.0,41,29.99,10.0,Calm,Calm,-,N/A,,Clear,0,2013-08-05 17:53:00
12:53 PM,78.1,42.1,28,29.97,10.0,Variable,3.5,-,N/A,,Clear,0,2013-08-05 18:53:00
1:53 PM,81.0,43.0,26,29.94,10.0,Calm,Calm,-,N/A,,Clear,0,2013-08-05 19:53:00
2:53 PM,84.0,43.0,24,29.91,10.0,Variable,3.5,-,N/A,,Clear,0,2013-08-05 20:53:00
3:53 PM,86.0,41.0,20,29.88,10.0,Calm,Calm,-,N/A,,Partly Cloudy,0,2013-08-05 21:53:00
4:53 PM,84.9,42.1,22,29.87,10.0,NNW,11.5,-,N/A,,Scattered Clouds,330,2013-08-05 22:53:00
5:53 PM,82.9,41.0,23,29.87,10.0,NW,16.1,-,N/A,,Scattered Clouds,320,2013-08-05 23:53:00
6:53 PM,82.9,44.1,25,29.88,10.0,NW,17.3,23.0,N/A,,Partly Cloudy,310,2013-08-06 00:53:00
7:53 PM,81.0,45.0,28,29.89,10.0,West,24.2,29.9,0.00,Rain,Light Rain,280,2013-08-06 01:53:00
8:53 PM,71.1,48.9,45,29.91,10.0,North,4.6,-,0.00,,Scattered Clouds,350,2013-08-06 02:53:00
9:53 PM,73.9,46.0,37,29.93,10.0,North,12.7,17.3,N/A,,Scattered Clouds,10,2013-08-06 03:53:00
10:53 PM,70.0,46.0,42,29.95,10.0,NW,8.1,-,N/A,,Clear,320,2013-08-06 04:53:00
11:53 PM,71.1,46.0,41,29.94,10.0,NW,5.8,-,N/A,,Clear,320,2013-08-06 05:53:00